Station AMAA2 - East Amatuli Island Light, AK Image indicating link to RSS feed of recent meteorological observations for station AMAA2


Conditions at AMAA2 as of
(1:30 am AKDT)
0930 GMT on 07/13/2024:
     

Click on the graph icon in the table below to see a time series plot of the last five days of that observation.

5-day plot - Wind Direction Wind Direction (WDIR):ENE ( 70 deg true )
5-day plot - Wind Speed Wind Speed (WSPD): 23 kts
5-day plot - Wind Gust Wind Gust (GST): 27 kts
5-day plot - Atmospheric Pressure Atmospheric Pressure (PRES):29.72 in
5-day plot - Air Temperature Air Temperature (ATMP): 49.6 °F
5-day plot - Dew Point Dew Point (DEWP): 49.6 °F
5-day plot - Wind Chill Wind Chill (CHILL): 42.1 °F
5-day plot - Wind Speed at 10 Meters Wind Speed at 10 meters (WSPD10M): 21 kts
5-day plot - Wind Speed at 20 Meters Wind Speed at 20 meters (WSPD20M): 23 kts
5-day plot -  Wind Speed, Wind Gust and Atmospheric Pressure Combined plot of Wind Speed, Gust, and Air Pressure
Continuous Winds
TIME
(AKDT)
5-day plot - Wind Direction WDIR 5-day plot - Wind Speed WSPD
1:30 amENE ( 66 deg ) 23 kts
1:20 amENE ( 66 deg ) 24 kts
1:10 amENE ( 67 deg ) 22 kts
1:00 amENE ( 69 deg ) 26 kts
12:50 amENE ( 71 deg ) 23 kts
12:40 amENE ( 70 deg ) 23 kts
 
Peak gust during the measurement hour
TIME
(AKDT)
5-day plot - Gust Direction GDR 5-day plot - Gust Speed GST
12:53 amENE ( 70 deg ) 32 kts
Previous observations
TIME
(AKDT)
5-day plot - Wind Direction
WDIR
 
5-day plot - Wind Speed
WSPD
kts
5-day plot - Wind Gust
GST
kts
5-day plot - Wave Height
WVHT
ft
5-day plot - Dominant Wave Period
DPD
sec
5-day plot - Average Wave Period
APD
sec
5-day plot - Mean Wave Direction
MWD
 
5-day plot - Atmospheric Pressure
PRES
in
5-day plot - Pressure Tendency
PTDY
in
5-day plot - Air Temperature
ATMP
°F
5-day plot - Water Temperature
WTMP
°F
5-day plot - Dew Point
DEWP
°F
5-day plot - Salinity
SAL
psu
5-day plot - Visibility
VIS
nmi
5-day plot - Tide (above MLLW)
TIDE
ft
2024-07-13 01:00 amENE 25 30----29.73-0.05 49.8- 49.8---
2024-07-13 12:30 am E 24 27----29.73- 49.8- 49.8---
2024-07-13 12:00 am E 24 28----29.75-0.03 49.6- 49.6---
2024-07-12 11:30 pm E 21 24----29.75- 49.8- 49.8---
2024-07-12 11:00 pm E 18 23----29.77-0.01 49.6- 49.6---
2024-07-12 10:30 pm E 24 28----29.77- 49.6- 49.6---
2024-07-12 10:00 pm E 19 21----29.78-0.02 49.6- 49.6---
2024-07-12 09:30 pm E 20 28----29.78- 49.8- 49.8---
2024-07-12 09:00 pmESE 25 32----29.77-0.04 49.5- 49.5---
2024-07-12 08:30 pmESE 24 29----29.78- 49.6- 49.6---
2024-07-12 08:00 pmESE 24 28----29.78-0.06 50.2- 50.2---
2024-07-12 07:30 pmESE 22 27----29.79- 50.2- 50.2---
2024-07-12 07:00 pmESE 20 23----29.80-0.05 50.2- 50.2---
2024-07-12 06:30 pmESE 22 28----29.80- 50.2- 50.2---
2024-07-12 06:00 pmESE 25 27----29.81-0.06 50.0- 50.0---
2024-07-12 05:30 pmESE 23 29----29.82- 49.8- 49.8---
2024-07-12 05:00 pmESE 23 26----29.83-0.04 50.0- 50.0---
2024-07-12 04:30 pmESE 20 26----29.84- 50.0- 50.0---
2024-07-12 04:00 pmESE 22 27----29.85-0.04 50.0- 50.0---
2024-07-12 03:30 pmESE 18 22----29.86- 49.8- 49.8---
2024-07-12 03:00 pmESE 20 23----29.86-0.03 49.6- 49.6---
2024-07-12 02:30 pmESE 19 21----29.88- 49.6- 49.6---
2024-07-12 02:00 pmESE 19 22----29.88-0.03 49.6- 49.6---
2024-07-12 01:30 pmESE 18 20----29.89- 49.5- 49.5---
2024-07-12 01:00 pmESE 18 21----29.89-0.02 49.5- 49.5---
2024-07-12 12:30 pm SE 18 23----29.89- 49.6- 49.6---
2024-07-12 12:00 pmESE 19 23----29.89-0.03 49.6- 49.6---
2024-07-12 11:30 am SE 16 18----29.90- 49.6- 49.6---
2024-07-12 11:00 am SE 14 17----29.91-0.01 49.8- 49.8---
2024-07-12 10:30 am SE 17 19----29.91- 49.6- 49.6---
2024-07-12 10:00 am SE 20 23----29.91-0.03 50.0- 50.0---
2024-07-12 09:30 am SE 17 18----29.92- 50.0- 50.0---
2024-07-12 09:00 am SE 18 21----29.92-0.02 50.0- 50.0---
2024-07-12 08:30 am SE 19 21----29.92- 50.4- 50.4---
2024-07-12 08:00 am SE 21 24----29.92-0.03 50.4- 50.4---
2024-07-12 07:30 am SE 16 19----29.93- 50.0- 50.0---
2024-07-12 07:00 am SE 12 14----29.94-0.01 50.4- 50.4---
2024-07-12 06:30 am SE 10 14----29.94- 50.2- 50.2---
2024-07-12 06:00 am SE 14 18----29.94-0.01 50.0- 50.0---
2024-07-12 05:30 am SE 15 17----29.94- 50.2- 50.2---
2024-07-12 05:00 am SE 13 16----29.94-0.02 49.8- 49.8---
2024-07-12 04:30 amESE 13 14----29.95- 50.0- 50.0---
2024-07-12 04:00 amSSE 8 11----29.95-0.02 49.8- 49.8---
2024-07-12 03:30 am E 12 14----29.96- 50.4- 50.4---
2024-07-12 03:00 am E 13 15----29.96-0.01 50.2- 50.2---
2024-07-12 02:30 am E 14 17----29.96- 50.2- 50.2---
2024-07-12 02:00 am E 14 16----29.97+0.00 50.4- 50.4---
2024-07-12 01:30 amENE 18 21----29.96- 50.4- 50.4---
2024-07-12 01:00 amENE 16 19----29.97+0.00 50.4- 50.4---